Theta_e
314 309 305 309 312 310 309 308 306 312 317 317 317 323 328 335 336 337 338 339 338 340 343 345 345 346 345 345 345 348 353 363 355 351 350 351 349 353 360 355 362 365 362 362
310 304 310 311 311 309 308 307 307 310 315 315 318 318 327 333 334 337 338 339 339 341 342 343 344 345 344 345 347 353 356 363 357 352 354 354 355 352 354 355 363 363 363 364
307 309 311 310 308 306 307 306 306 307 311 315 314 317 323 329 335 337 339 341 342 339 341 342 343 344 345 344 348 354 359 362 360 359 355 356 358 360 352 359 356 361 362 363
308 311 309 308 306 308 304 309 308 307 306 304 314 305 320 322 330 332 335 338 340 341 342 343 344 344 345 345 347 356 359 362 360 364 354 360 351 348 350 354 354 358 363 362
306 307 306 306 307 309 305 310 308 307 305 306 309 306 314 325 322 329 333 336 340 342 341 342 344 346 347 347 346 349 360 363 362 361 361 355 357 350 351 351 366 371 370 363
306 313 311 308 311 310 311 307 308 308 305 298 304 306 309 316 324 327 333 335 339 341 343 343 346 348 348 348 348 348 359 363 364 363 361 364 360 360 349 353 354 353 356 358
302 304 309 312 307 310 308 305 298 297 297 296 305 302 309 317 323 327 331 334 338 341 343 343 343 345 347 348 350 351 358 362 363 363 359 362 366 365 366 363 353 355 349 351
297 296 303 309 307 306 306 305 300 294 296 298 305 300 305 316 322 326 331 335 338 339 342 344 345 345 348 350 354 356 359 361 364 363 363 362 365 353 354 362 353 350 348 351
297 297 306 307 309 309 306 303 308 303 306 301 304 306 311 313 315 321 326 332 334 338 340 343 345 346 347 351 355 357 360 363 365 362 364 366 364 359 354 364 367 357 362 354
300 295 304 305 308 309 307 311 302 302 296 296 303 305 304 309 311 317 323 328 331 338 340 341 344 346 348 349 352 358 360 364 365 363 364 364 365 365 362 365 368 364 368 366
300 297 298 302 302 301 303 303 305 306 303 298 298 303 314 313 313 314 320 327 330 335 338 341 343 346 348 350 350 352 357 363 362 363 365 364 363 363 362 363 367 368 370 372
301 297 294 297 302 305 304 304 305 301 300 303 303 304 317 317 317 317 318 322 326 331 336 340 342 346 347 349 350 351 352 354 360 362 365 364 366 364 362 359 365 369 370 372
301 296 290 293 298 301 300 303 304 305 306 303 299 302 318 318 318 319 318 321 325 328 332 337 340 345 347 348 353 352 352 352 355 361 360 363 365 364 362 365 366 367 369 370
300 297 294 291 294 298 296 299 303 303 300 301 302 306 312 315 316 318 321 323 323 327 330 333 337 341 347 351 356 358 353 353 354 356 356 361 364 365 364 367 368 368 371 370
300 292 295 296 297 297 296 297 299 300 304 300 304 306 312 315 317 319 322 325 324 325 327 331 333 336 345 354 358 359 356 359 356 358 358 360 365 367 368 366 368 368 370 370
300 293 295 293 297 296 293 295 296 297 299 300 302 304 314 315 318 320 321 325 325 328 329 330 333 336 340 345 357 360 359 360 360 360 359 362 366 367 367 366 367 369 369 370
295 294 292 289 293 294 290 294 295 297 299 299 297 304 312 312 314 317 321 327 328 329 330 334 336 339 342 343 354 357 360 361 362 363 363 364 367 367 368 367 367 368 369 370
295 294 293 289 291 283 295 300 299 298 300 301 302 304 308 311 315 318 322 326 329 331 333 335 337 338 340 343 345 355 357 361 363 362 366 365 368 367 369 369 368 369 369 369
299 295 290 286 287 291 294 297 298 296 298 306 304 305 306 311 314 315 321 323 330 332 335 338 340 340 343 343 344 354 356 361 361 363 365 366 367 368 370 368 368 370 369 369
297 297 292 289 285 282 293 300 302 302 293 306 307 306 306 310 305 312 322 330 331 335 339 340 344 346 345 346 346 349 355 361 360 364 364 367 369 369 369 370 371 371 371 369
291 291 289 289 287 290 298 301 301 291 294 304 309 311 310 310 314 321 325 327 329 332 338 344 347 351 352 350 349 351 353 355 363 362 365 369 369 370 372 373 373 372 369 366
290 288 288 290 286 284 302 300 293 301 301 301 310 312 315 316 318 319 320 322 325 328 337 343 348 354 356 354 359 357 357 361 369 366 366 368 370 366 365 372 372 373 371 370
287 292 290 291 291 301 302 301 304 306 299 299 304 311 312 311 313 314 317 320 322 323 327 336 340 342 344 354 356 355 369 367 370 367 367 368 369 368 369 369 370 365 370 360
291 292 289 292 294 294 297 301 303 304 301 302 306 308 309 310 311 312 314 316 317 321 322 324 329 330 329 334 341 354 361 368 365 365 367 367 367 366 369 364 364 360 358 358
290 292 288 289 292 293 296 299 300 300 302 303 308 308 309 310 308 310 311 312 316 318 320 322 323 322 322 329 331 337 336 353 362 363 361 364 361 362 363 363 361 360 363 352
295 290 287 287 293 291 294 298 302 305 305 306 307 306 308 308 308 310 311 313 316 318 320 320 322 322 321 323 324 327 330 334 354 357 358 357 358 359 358 358 356 314 322 313
Wind_Speed
19 16 20 22 21 21 19 16 21 18 19 16 21 19 22 18 19 19 19 20 21 23 23 22 21 20 20 19 19 17 15 12 11 10 10 9 8 8 5 5 7 8 3 5
15 22 20 19 18 21 22 15 15 18 14 16 18 21 15 17 18 19 19 19 21 22 25 23 23 22 21 20 19 17 15 13 11 10 8 8 7 9 7 7 8 6 7 5
22 11 20 21 20 20 20 20 16 15 12 11 19 21 22 16 20 18 19 18 20 22 25 25 25 24 22 22 20 18 16 15 13 12 8 7 7 5 8 5 7 8 8 8
21 21 11 22 23 21 20 17 19 18 17 14 20 16 22 18 18 20 20 19 21 23 24 26 26 24 24 23 21 19 18 16 15 13 12 12 10 9 8 7 8 9 9 8
15 18 24 20 20 21 18 16 20 19 17 17 20 19 17 26 25 24 22 22 21 24 25 27 28 27 25 23 22 20 19 17 16 15 12 12 12 9 9 9 10 6 8 8
17 16 17 23 18 16 18 18 19 16 16 18 23 22 21 18 30 25 24 21 23 24 25 25 26 25 23 23 22 22 20 19 17 17 16 14 14 11 10 9 10 9 9 9
19 20 19 12 17 23 17 21 14 15 17 18 23 25 19 19 21 28 26 26 23 23 23 24 25 25 25 26 25 22 22 21 20 19 18 15 14 13 9 10 9 10 10 9
14 17 22 19 22 20 26 22 15 26 16 19 24 25 23 25 19 21 24 27 25 23 23 24 25 25 26 26 24 22 23 23 22 20 19 17 16 12 12 10 10 10 9 9
12 23 1 5 18 23 21 27 25 27 23 22 20 27 22 26 27 23 12 21 24 27 23 26 25 25 25 24 24 24 23 23 23 23 18 18 16 16 14 13 12 10 9 7
8 14 12 9 8 16 23 17 24 19 26 25 20 24 19 23 20 26 19 14 19 27 26 24 24 25 24 25 24 23 22 23 23 22 20 18 18 17 14 13 13 13 8 9
15 9 17 11 12 20 18 21 16 18 24 19 17 14 13 23 22 20 26 19 18 18 24 23 23 23 24 23 24 24 23 22 22 22 20 20 18 19 17 14 14 12 11 9
10 11 15 18 16 22 26 20 28 16 20 21 19 11 11 16 20 20 21 25 23 20 19 22 22 23 23 24 24 24 25 25 23 22 21 21 20 19 18 18 15 15 13 12
11 10 14 16 14 16 14 17 18 20 23 22 20 18 4 5 6 7 18 19 19 22 21 18 21 21 21 23 21 23 24 26 25 22 23 21 20 20 20 19 17 16 15 14
3 14 17 14 8 12 17 24 12 20 18 22 20 22 20 8 8 1 7 8 19 17 19 22 21 22 23 21 21 20 23 24 24 24 24 21 22 21 20 18 17 16 15 15
11 17 19 19 16 15 16 9 13 20 20 17 17 20 20 11 10 10 3 6 5 2 5 9 12 14 17 20 19 20 21 20 22 22 22 22 21 20 19 19 18 17 16 15
13 15 17 18 21 14 17 16 17 18 20 20 22 23 24 18 18 16 3 8 3 7 6 5 11 16 16 17 18 19 20 20 20 21 22 19 19 20 20 19 19 18 17 16
12 10 13 17 18 19 21 22 21 21 21 21 23 23 22 19 18 18 5 4 9 10 9 8 10 9 11 16 16 19 20 18 19 18 19 19 19 20 20 19 19 19 18 17
8 11 10 10 13 17 13 16 18 15 17 24 25 24 26 24 22 26 17 3 10 12 11 10 10 11 12 14 17 17 21 20 19 20 18 20 19 20 19 19 19 18 17 17
17 12 6 8 14 15 19 10 6 6 12 19 19 21 25 27 23 26 16 18 9 13 13 12 12 12 13 15 14 15 18 21 20 20 21 21 20 20 19 20 20 17 16 16
21 18 10 12 15 20 17 13 3 6 15 18 22 23 19 23 19 14 14 9 9 12 12 14 13 13 15 15 18 16 19 18 22 22 22 19 18 19 20 19 18 16 15 16
5 8 17 15 14 12 16 11 4 10 4 21 25 14 10 12 14 12 7 9 9 11 13 11 12 15 16 15 17 17 19 22 20 18 17 17 18 18 17 16 15 16 16 15
6 7 11 15 20 20 8 4 10 7 7 17 22 16 13 10 8 7 7 8 9 11 10 9 8 11 18 14 14 15 16 15 14 16 17 17 17 16 15 16 15 15 14 14
5 6 6 6 6 8 7 11 16 10 8 17 24 14 14 6 2 7 6 8 8 10 11 10 10 11 16 19 5 12 9 14 14 15 15 15 16 16 14 16 15 14 14 14
3 6 4 7 4 14 20 21 16 19 12 14 19 10 11 7 8 4 6 7 8 9 10 11 10 12 15 16 16 15 5 10 13 15 15 15 16 15 14 14 14 14 14 14
3 4 5 5 8 15 13 12 15 21 14 21 7 6 5 7 5 6 6 6 8 9 10 11 11 12 13 13 14 16 15 7 13 14 14 15 15 15 15 14 14 14 14 11
5 4 3 3 8 7 9 16 20 6 7 3 2 3 4 4 4 5 5 6 7 7 9 10 12 13 13 13 14 16 16 13 6 10 12 14 14 15 15 14 9 10 9 11
Wind_Direction
198 215 215 214 224 239 263 226 233 234 214 205 228 213 147 185 173 165 170 174 181 185 187 178 190 185 182 181 176 188 185 167 171 180 193 190 178 206 188 197 135 147 188 177
199 226 228 230 225 233 253 257 253 241 213 212 214 236 169 179 182 172 177 178 182 184 180 185 190 187 189 184 182 183 187 172 187 192 199 197 201 188 197 202 161 209 186 169
231 220 218 236 229 237 229 241 240 253 225 249 242 233 213 183 183 183 182 184 184 186 183 187 189 192 191 187 186 182 187 178 188 198 193 199 205 209 201 179 175 191 191 184
229 245 243 217 232 229 236 219 257 254 250 221 219 238 215 168 201 187 185 186 186 187 191 185 189 195 193 191 188 183 184 184 187 210 185 189 203 204 183 206 193 169 199 195
232 229 241 226 234 230 242 241 221 246 251 249 238 226 245 187 207 184 194 186 196 185 190 189 192 192 195 192 189 189 183 187 190 194 211 183 218 201 187 201 154 217 168 204
264 266 237 241 229 237 236 243 251 235 234 238 235 247 225 214 198 212 181 192 194 188 189 195 192 189 196 193 192 191 183 189 195 188 210 196 195 229 206 205 165 189 179 188
231 237 251 245 252 221 215 224 222 223 218 235 223 231 243 219 228 206 193 187 191 197 190 195 191 190 192 195 195 190 183 188 190 192 194 206 202 212 240 178 216 199 201 195
280 222 213 212 231 234 212 225 227 218 216 226 230 224 224 247 254 230 216 182 187 195 188 196 197 193 191 196 192 193 184 187 189 195 194 199 199 201 218 205 207 222 215 199
257 240 207 276 212 239 230 216 244 258 238 237 212 218 234 214 234 250 269 192 184 185 195 193 196 198 196 194 194 194 189 187 191 194 192 191 200 211 198 215 212 223 222 219
289 277 263 196 234 270 263 259 220 236 249 254 235 221 205 209 216 224 226 236 193 192 183 197 195 198 199 196 197 195 196 191 192 194 193 194 193 200 211 202 201 217 225 231
281 252 257 205 201 232 222 247 257 249 231 247 247 232 233 194 198 221 218 205 234 218 183 195 193 194 198 200 197 198 195 193 192 201 197 197 196 197 204 203 202 215 212 222
244 271 248 242 220 226 245 247 232 240 227 235 256 239 291 200 184 204 232 218 218 225 214 195 197 191 193 199 198 197 199 199 195 200 198 197 194 195 197 205 204 198 211 211
278 228 250 250 259 252 245 238 257 257 248 231 228 240 72 59 133 248 200 229 219 228 210 207 194 187 192 197 201 200 198 201 199 199 200 196 196 195 197 197 203 202 201 207
289 266 271 263 336 333 233 237 246 266 240 239 249 228 223 165 162 117 287 263 222 222 229 209 201 191 186 196 194 198 198 202 200 196 203 199 198 198 199 196 196 202 200 201
245 254 261 267 278 283 294 278 233 256 264 271 254 243 261 249 224 219 326 300 273 195 299 260 228 222 188 184 189 192 202 199 199 196 200 199 197 200 197 195 194 196 201 200
229 262 275 267 274 246 255 246 251 255 256 267 275 278 279 325 323 320 224 322 329 313 276 268 250 244 216 200 187 189 198 201 200 194 198 196 193 196 197 196 194 195 199 201
287 263 262 256 251 246 240 239 240 245 248 252 250 254 271 280 281 293 301 2 307 293 288 292 294 267 239 213 191 197 195 201 197 204 195 195 189 194 197 196 193 195 198 198
222 261 254 267 255 254 258 244 241 263 276 238 246 257 260 262 262 271 283 221 285 292 296 289 273 267 259 234 210 195 193 198 203 201 197 194 192 195 194 193 195 195 195 201
235 214 262 246 254 249 255 251 20 4 276 293 282 266 234 258 271 265 278 280 251 277 281 274 270 270 273 271 225 190 202 192 203 200 202 195 196 192 194 197 195 194 197 200
233 214 203 257 244 249 250 85 65 292 262 269 260 254 231 234 249 263 299 346 298 283 286 286 284 275 254 239 255 203 191 199 200 203 200 194 195 194 199 197 193 191 196 204
225 254 223 230 252 258 278 92 323 253 302 337 323 321 226 248 273 314 344 320 317 301 288 300 288 269 250 238 226 244 189 207 200 204 195 192 198 197 199 196 195 193 197 205
260 219 222 236 246 245 4 279 251 341 325 325 305 321 316 288 21 339 351 332 340 327 319 329 324 333 332 213 220 222 210 188 186 195 192 192 194 196 192 196 195 197 196 203
286 355 298 279 260 5 311 298 306 302 292 287 294 305 320 332 12 13 8 2 11 353 346 12 9 9 12 3 260 211 173 171 176 186 189 191 188 192 196 189 192 193 195 206
292 334 283 315 348 344 319 300 294 268 253 272 272 299 310 299 353 33 4 23 36 13 1 10 18 26 24 16 12 8 177 175 172 188 188 188 186 188 202 184 192 201 199 202
268 279 283 278 310 292 265 273 274 258 247 259 250 288 308 324 9 332 341 29 28 33 29 25 23 29 19 16 16 16 6 307 192 189 191 188 187 187 195 195 195 201 210 204
348 344 335 308 309 322 315 320 310 165 193 148 170 84 25 9 337 335 6 26 41 36 32 32 31 31 28 18 12 8 4 1 295 197 194 191 189 181 193 193 166 52 120 121